STARLINK-36261, 67105

Orbit data source: Space-Track

STARLINK-36261, 67105 is a payload satellite owned by SpaceX/Seattle (US) in LEO that was launched on Mon, 15 Dec 2025 UTC via an FALCON 9 launch vehicle from the Air Force Eastern Test Range (AFETR). Payload-class satellites include a variety of spacecraft equipped with specific instruments for various scientific and technological missions. These include communications satellites like Starlink; space stations such as the ISS; scientific satellites like the Hubble; Earth observation satellites from companies like Planet Labs, Umbra, and HawkEye 360; GPS; miniature CubeSats for education and research; and military/defense satellites.

Not visible in the next 10 days
Identifier
67105, 2025-299D
Orbit
LEO
Country
Flag of USUS
Related business
Manufacturer
SpaceX/Seattle
Mission
Operational spacecraft
Bus & Motor
STARLINK V2MO, Unknown motor
Mass
575 kg wet, ~530 kg dry
Launch date (UTC)
2025-12-15 (1 week ago)
Launch vehicle
FALCON 9
Launch site
Air Force Eastern Test Range (AFETR)
Object type
Payload
Rocket body
Debris
Shape & HBR
Unknown
Radar Cross Section
RCS unknown

Expand to show TLE details & history
Last TLE update: 9 hours ago

TLE from 9 hours ago
0 STARLINK-36261
1 67105U 25299D   25355.16668980 -.01366079  55260-3 -33282-2 0  9995
2 67105  42.9995 265.3440 0001272 278.4465 285.2585 15.95367574  2167
Epoch: 2025-12-21T04:00Z
TLE epoch observation values (Epoch: 2025-12-21T04:00:01.998Z)
Latitude
-16.04865°
Longitude
-46.78445°
Altitude
290.264 km
Speed
7.735 km/s
True Right ascension
06h 52m 49s
True Declination
-15° 57' 04"
Sunlit
Object was in full shadow at epoch
Visualization orbit readout
Latitude
Unknown
Longitude
Unknown
Altitude
Unknown
Speed
Unknown
Apparent Right ascension
Unknown
Apparent Declination
Unknown
Sunlit
N/A
Visualization observer readout
Local Sidereal Time
12:14:29
Azimuth
Unknown
Elevation
Unknown
Doppler factor
Unknown
Orbital elements
Apogee altitude
290.141 km
Perigee altitude
288.444 km
Semi-major axis
6,667.43 km
Eccentricity
0.00013
Inclination
42.9995°
RAAN
265.344°
Arg. of periapsis
278.4465°
True anomaly
285.24444°
Mean anomaly
285.2585°
Eccentric anomaly
285.25147°
Mean motion
3.98663 °/min
Orbital period
90.3 mins
BSTAR
-0.0033282
Loading maneuver chart data...
Computing Atmospheric mass density...
Loading historical data...
Loading historical data...
Loading historical data...
Loading historical data...
Loading historical data...
Loading historical data...
Loading historical data...

Documentation

Showing up to 5 results
|